sat.trackr.live / text

‹ back to catalog

ICEYE-X66

NORAD 66301 · 2025-248J

PAYLOAD ACTIVE UNKNOWN

§ Identity

Operator
Country
UAE
Launch date
2025-11-02
Launch site
AFETR
Launch vehicle
Mass (kg)
RCS (m²)

External: N2YO · Heavens-Above · Gunter

§ Orbital elements

Epoch: 2026-05-24T23:56:12.801696Z

Period
95.44 min
Inclination
45.4015°
Eccentricity
0.0006149
Mean motion
15.08857732 rev/d
Perigee alt
535.4 km
Apogee alt
543.9 km
Semi-major
6,917.8 km
B*
2.4150e-4
RAAN
255.6933°
Arg perigee
259.6791°
Mean anomaly
100.3397°
Rev number
3,200

§ Raw data

ICEYE-X661 66301U 25248J   26144.99737039  .00003615  00000+0  24150-3 0  99902 66301  45.4015 255.6933 0006149 259.6791 100.3397 15.08857732 32003

JSON: /api/v1/satellites/66301 · /tle

For live sub-satellite position, see the globe view (requires WebGL).

§ Visibility from observer

Set your observer location to see the next 7 days of passes ≥ 10°. The values pass through the URL so the page stays shareable.

No JS? Fill the form by hand. The geolocation button needs JavaScript.